AXM1561 ZBAD-WBKK

Flight info

Callsign AXM1561
Flight time 5h 3m
Altitude 38000
Route OMDEK7F OMDEK W37 GUSIV/K0852S1130 W37 PEXID/K0856S1100 W37 OMBEB/K0854S1130 R473 NNX/K0863S1100 R473 WYN/K0854S1160 W18 NLG/K0852S1130 W18 TAMOT/N0460F370 B330 BIGEX A583 AKOTA/N0460F380 M754 VINIK M522 ENBAX ENBAX1B
Aircraft A20N/M-V/N

Departure

Time 2026-04-24 08:29
Airport Beijing Daxing International Airport (ZBAD)

Arrival

Time 2026-04-24 13:33
Airport Kota Kinabalu International Airport (WBKK)
Time Latitude Longitude Altitude Speed Heading
2026-04-24 08:13 39.50824 116.40575 84 ft 0 kts 154°
2026-04-24 08:23 39.50834 116.40569 87 ft 4 kts 155°
2026-04-24 08:23 39.50859 116.40555 88 ft 4 kts 159°
2026-04-24 08:23 39.50884 116.40544 87 ft 4 kts 167°
2026-04-24 08:24 39.50910 116.40541 87 ft 4 kts 201°
2026-04-24 08:24 39.50921 116.40550 87 ft 1 kts 246°
2026-04-24 08:26 39.50919 116.40544 86 ft 3 kts 246°
2026-04-24 08:26 39.50902 116.40495 88 ft 10 kts 246°
2026-04-24 08:26 39.50872 116.40376 86 ft 16 kts 262°
2026-04-24 08:26 39.50856 116.40228 85 ft 17 kts 263°
2026-04-24 08:27 39.50841 116.40072 85 ft 17 kts 263°
2026-04-24 08:27 39.50897 116.39959 90 ft 15 kts 290°
2026-04-24 08:27 39.50900 116.39915 91 ft 0 kts 263°
2026-04-24 08:27 39.50899 116.39912 91 ft 3 kts 263°
2026-04-24 08:28 39.50894 116.39854 92 ft 6 kts 263°
2026-04-24 08:28 39.50890 116.39812 97 ft 5 kts 263°
2026-04-24 08:28 39.50862 116.39761 95 ft 9 kts 188°
2026-04-24 08:28 39.50717 116.39785 97 ft 49 kts 173°
2026-04-24 08:29 39.50168 116.39872 98 ft 109 kts 173°
2026-04-24 08:29 39.49224 116.40020 97 ft 157 kts 174°
2026-04-24 08:29 39.48071 116.40194 468 ft 168 kts 176°
2026-04-24 08:29 39.46909 116.40364 1028 ft 175 kts 176°
2026-04-24 08:30 39.45636 116.40480 1430 ft 192 kts 187°
2026-04-24 08:30 39.44267 116.40042 1734 ft 214 kts 198°
2026-04-24 08:30 39.42780 116.39454 2099 ft 234 kts 198°
2026-04-24 08:30 39.41156 116.38800 2534 ft 253 kts 198°
2026-04-24 08:31 39.39464 116.38123 3274 ft 256 kts 198°
2026-04-24 08:31 39.37755 116.37443 4034 ft 258 kts 198°
2026-04-24 08:31 39.36021 116.36756 4727 ft 261 kts 199°
2026-04-24 08:31 39.34272 116.36067 5373 ft 265 kts 199°
2026-04-24 08:32 39.32492 116.35363 5970 ft 269 kts 199°
2026-04-24 08:32 39.30718 116.34662 6537 ft 272 kts 199°
2026-04-24 08:32 39.28905 116.33945 7075 ft 274 kts 199°
2026-04-24 08:32 39.27071 116.33219 7607 ft 276 kts 199°
2026-04-24 08:33 39.25226 116.32490 8108 ft 279 kts 199°
2026-04-24 08:33 39.23360 116.31753 8574 ft 282 kts 199°
2026-04-24 08:33 39.21474 116.31008 9029 ft 284 kts 199°
2026-04-24 08:33 39.19597 116.30267 9450 ft 287 kts 199°
2026-04-24 08:34 39.17680 116.29510 9869 ft 289 kts 199°
2026-04-24 08:34 39.15743 116.28744 10173 ft 295 kts 199°
2026-04-24 08:34 39.13738 116.27951 10278 ft 306 kts 199°
2026-04-24 08:34 39.11661 116.27132 10378 ft 317 kts 199°
2026-04-24 08:35 39.09514 116.26289 10474 ft 327 kts 199°
2026-04-24 08:35 39.07303 116.25420 10603 ft 337 kts 199°
2026-04-24 08:35 39.05050 116.24537 11013 ft 339 kts 199°
2026-04-24 08:35 39.02789 116.23649 11552 ft 341 kts 199°
2026-04-24 08:36 39.00512 116.22757 12161 ft 344 kts 199°
2026-04-24 08:36 38.98216 116.21858 12869 ft 346 kts 199°
2026-04-24 08:36 38.95900 116.20950 13593 ft 349 kts 199°
2026-04-24 08:36 38.93597 116.20047 14211 ft 353 kts 199°
2026-04-24 08:37 38.91234 116.19122 14802 ft 357 kts 199°
2026-04-24 08:37 38.88840 116.18185 15380 ft 361 kts 199°
2026-04-24 08:37 38.86423 116.17240 15979 ft 365 kts 199°
2026-04-24 08:37 38.83976 116.16282 16549 ft 369 kts 198°
2026-04-24 08:38 38.81504 116.15318 17110 ft 374 kts 198°
2026-04-24 08:38 38.79003 116.14342 17690 ft 377 kts 198°
2026-04-24 08:38 38.76476 116.13357 18235 ft 382 kts 198°
2026-04-24 08:38 38.73927 116.12365 18741 ft 385 kts 198°
2026-04-24 08:39 38.71357 116.11365 19275 ft 387 kts 198°
2026-04-24 08:39 38.68768 116.10358 19782 ft 390 kts 198°
2026-04-24 08:39 38.66210 116.09363 20279 ft 393 kts 199°
2026-04-24 08:39 38.63621 116.08203 20779 ft 395 kts 202°
2026-04-24 08:40 38.61040 116.06963 21268 ft 398 kts 202°
2026-04-24 08:40 38.58438 116.05715 21757 ft 401 kts 202°
2026-04-24 08:40 38.55815 116.04459 22261 ft 403 kts 202°
2026-04-24 08:40 38.53173 116.03198 22750 ft 406 kts 202°
2026-04-24 08:41 38.50549 116.01945 23233 ft 409 kts 202°
2026-04-24 08:41 38.47873 116.00669 23674 ft 411 kts 202°
2026-04-24 08:41 38.45186 115.99390 24106 ft 413 kts 202°
2026-04-24 08:41 38.42492 115.98109 24523 ft 414 kts 203°
2026-04-24 08:42 38.39785 115.96822 24931 ft 416 kts 203°
2026-04-24 08:42 38.37064 115.95530 25309 ft 418 kts 203°
2026-04-24 08:42 38.34333 115.94234 25706 ft 420 kts 203°
2026-04-24 08:42 38.31588 115.92932 26078 ft 422 kts 203°
2026-04-24 08:43 38.28803 115.91728 26434 ft 425 kts 198°
2026-04-24 08:43 38.25898 115.90929 26792 ft 429 kts 191°
2026-04-24 08:43 38.22922 115.90462 27145 ft 432 kts 189°
2026-04-24 08:43 38.19927 115.90003 27479 ft 434 kts 189°
2026-04-24 08:44 38.16927 115.89536 27802 ft 436 kts 189°
2026-04-24 08:44 38.13904 115.89063 28135 ft 438 kts 189°
2026-04-24 08:44 38.10878 115.88588 28442 ft 440 kts 189°
2026-04-24 08:44 38.07836 115.88112 28742 ft 441 kts 189°
2026-04-24 08:45 38.04781 115.87635 29030 ft 443 kts 189°
2026-04-24 08:45 38.01712 115.87157 29330 ft 445 kts 189°
2026-04-24 08:45 37.98631 115.86678 29612 ft 447 kts 189°
2026-04-24 08:45 37.95577 115.86203 29873 ft 449 kts 189°
2026-04-24 08:46 37.92469 115.85720 30121 ft 450 kts 189°
2026-04-24 08:46 37.89355 115.85236 30406 ft 451 kts 189°
2026-04-24 08:46 37.86233 115.84735 30663 ft 452 kts 190°
2026-04-24 08:46 37.83107 115.84221 30915 ft 453 kts 190°
2026-04-24 08:47 37.79979 115.83704 31230 ft 453 kts 190°
2026-04-24 08:47 37.76856 115.83191 31586 ft 452 kts 190°
2026-04-24 08:47 37.73764 115.82577 31919 ft 448 kts 195°
2026-04-24 08:47 37.70762 115.81569 32245 ft 445 kts 201°
2026-04-24 08:48 37.67889 115.80172 32551 ft 441 kts 207°
2026-04-24 08:48 37.65095 115.78555 32859 ft 440 kts 207°
2026-04-24 08:48 37.62312 115.76951 33160 ft 439 kts 207°
2026-04-24 08:48 37.59532 115.75360 33449 ft 438 kts 207°
2026-04-24 08:49 37.56760 115.73778 33738 ft 437 kts 207°
2026-04-24 08:49 37.53994 115.72203 33999 ft 436 kts 207°
2026-04-24 08:49 37.51264 115.70650 34194 ft 436 kts 207°
2026-04-24 08:49 37.48504 115.69081 34368 ft 436 kts 207°
2026-04-24 08:50 37.45734 115.67507 34539 ft 436 kts 207°
2026-04-24 08:50 37.42970 115.65938 34716 ft 436 kts 207°
2026-04-24 08:50 37.40209 115.64343 34889 ft 436 kts 208°
2026-04-24 08:50 37.38397 115.63262 34995 ft 436 kts 208°
2026-04-24 08:51 37.34739 115.61058 35204 ft 436 kts 209°
2026-04-24 08:51 37.32016 115.59421 35364 ft 436 kts 208°
2026-04-24 08:51 37.29274 115.57780 35521 ft 436 kts 208°
2026-04-24 08:51 37.26534 115.56146 35670 ft 436 kts 208°
2026-04-24 08:52 37.24717 115.55065 35760 ft 436 kts 208°
2026-04-24 08:52 37.21087 115.52908 35939 ft 436 kts 208°
2026-04-24 08:52 37.18341 115.51279 36075 ft 436 kts 208°
2026-04-24 08:52 37.15600 115.49653 36207 ft 436 kts 208°
2026-04-24 08:53 37.12851 115.48024 36328 ft 436 kts 209°
2026-04-24 08:53 37.08290 115.45324 36521 ft 437 kts 209°
2026-04-24 08:53 37.05538 115.43697 36642 ft 436 kts 209°
2026-04-24 08:54 37.02828 115.42096 36754 ft 436 kts 209°
2026-04-24 08:54 37.00084 115.40476 36868 ft 436 kts 209°
2026-04-24 08:54 36.97337 115.38856 36982 ft 436 kts 209°
2026-04-24 08:55 36.91840 115.35617 37174 ft 437 kts 209°
2026-04-24 08:55 36.86339 115.32381 37365 ft 437 kts 209°
2026-04-24 08:56 36.80843 115.29153 37543 ft 436 kts 209°
2026-04-24 08:56 36.75349 115.25931 37714 ft 436 kts 209°
2026-04-24 08:57 36.69851 115.22712 37865 ft 436 kts 209°
2026-04-24 08:57 36.64354 115.19495 38011 ft 436 kts 209°
2026-04-24 08:58 36.58897 115.16307 38020 ft 436 kts 209°
2026-04-24 08:58 36.53411 115.13108 38023 ft 435 kts 209°
2026-04-24 08:59 36.47920 115.09920 38023 ft 435 kts 209°
2026-04-24 08:59 36.42435 115.06741 38018 ft 435 kts 209°
2026-04-24 09:00 36.36805 115.03926 38020 ft 438 kts 201°
2026-04-24 09:00 36.30871 115.02311 38020 ft 444 kts 191°
2026-04-24 09:01 36.24690 115.01651 38018 ft 445 kts 189°
2026-04-24 09:01 36.18514 115.01030 38026 ft 445 kts 189°
2026-04-24 09:02 36.12340 115.00399 38026 ft 445 kts 189°
2026-04-24 09:02 36.06169 114.99768 38028 ft 445 kts 189°
2026-04-24 09:03 35.99974 114.99137 38027 ft 445 kts 189°
2026-04-24 09:03 35.93840 114.98513 38033 ft 445 kts 189°
2026-04-24 09:04 35.87651 114.97884 38037 ft 445 kts 189°
2026-04-24 09:04 35.81472 114.97257 38031 ft 445 kts 189°
2026-04-24 09:05 35.75287 114.96631 38045 ft 445 kts 189°
2026-04-24 09:05 35.69138 114.96010 38054 ft 446 kts 189°
2026-04-24 09:06 35.62915 114.95381 38051 ft 446 kts 189°
2026-04-24 09:06 35.56773 114.94763 38058 ft 446 kts 189°
2026-04-24 09:07 35.50589 114.94140 38065 ft 446 kts 189°
2026-04-24 09:07 35.41302 114.93208 38069 ft 446 kts 189°
2026-04-24 09:08 35.35121 114.92589 38075 ft 446 kts 189°
2026-04-24 09:08 35.28991 114.91976 38070 ft 444 kts 189°
2026-04-24 09:09 35.22843 114.91361 38069 ft 443 kts 189°
2026-04-24 09:09 35.16691 114.90747 38078 ft 443 kts 189°
2026-04-24 09:10 35.10545 114.90135 38077 ft 443 kts 190°
2026-04-24 09:10 35.04441 114.89527 38080 ft 442 kts 190°
2026-04-24 09:11 34.98306 114.88918 38078 ft 442 kts 190°
2026-04-24 09:11 34.92164 114.88309 38088 ft 442 kts 190°
2026-04-24 09:12 34.86034 114.87701 38086 ft 442 kts 190°
2026-04-24 09:12 34.79907 114.87096 38085 ft 441 kts 190°
2026-04-24 09:13 34.73790 114.86492 38089 ft 441 kts 190°
2026-04-24 09:13 34.67669 114.85889 38094 ft 441 kts 190°
2026-04-24 09:14 34.61557 114.85287 38090 ft 441 kts 190°
2026-04-24 09:14 34.55480 114.84689 38092 ft 440 kts 190°
2026-04-24 09:15 34.49374 114.84090 38094 ft 440 kts 191°
2026-04-24 09:15 34.43269 114.83491 38095 ft 440 kts 191°
2026-04-24 09:16 34.37162 114.82894 38095 ft 440 kts 191°
2026-04-24 09:16 34.31061 114.82298 38096 ft 440 kts 191°
2026-04-24 09:17 34.24958 114.81702 38100 ft 440 kts 191°
2026-04-24 09:17 34.18848 114.81106 38105 ft 440 kts 191°
2026-04-24 09:18 34.12791 114.80519 38103 ft 440 kts 191°
2026-04-24 09:18 34.06688 114.79933 38100 ft 439 kts 191°
2026-04-24 09:19 34.00598 114.79348 38106 ft 439 kts 191°
2026-04-24 09:19 33.94500 114.78763 38109 ft 439 kts 191°
2026-04-24 09:20 33.88414 114.78180 38107 ft 439 kts 191°
2026-04-24 09:20 33.82333 114.77596 38110 ft 438 kts 191°
2026-04-24 09:21 33.76255 114.76986 38107 ft 438 kts 191°
2026-04-24 09:21 33.70219 114.76379 38110 ft 438 kts 191°
2026-04-24 09:22 33.64150 114.75807 38098 ft 438 kts 191°
2026-04-24 09:22 33.58075 114.75254 38095 ft 437 kts 191°
2026-04-24 09:23 33.52015 114.74635 38099 ft 436 kts 192°
2026-04-24 09:23 33.45961 114.74004 38097 ft 436 kts 192°
2026-04-24 09:24 33.39912 114.73418 38097 ft 436 kts 192°
2026-04-24 09:24 33.33906 114.72843 38100 ft 435 kts 192°
2026-04-24 09:25 33.27865 114.72261 38103 ft 435 kts 192°
2026-04-24 09:25 33.21827 114.71679 38098 ft 435 kts 192°
2026-04-24 09:26 33.15801 114.71093 38103 ft 434 kts 192°
2026-04-24 09:26 33.09787 114.70500 38102 ft 434 kts 192°
2026-04-24 09:27 33.03774 114.69908 38099 ft 433 kts 192°
2026-04-24 09:27 32.97804 114.69323 38096 ft 433 kts 192°
2026-04-24 09:28 32.91803 114.68736 38101 ft 433 kts 192°
2026-04-24 09:28 32.85795 114.68151 38102 ft 432 kts 192°
2026-04-24 09:29 32.79786 114.67583 38104 ft 433 kts 192°
2026-04-24 09:29 32.73781 114.67016 38100 ft 433 kts 192°
2026-04-24 09:30 32.67819 114.66452 38108 ft 433 kts 192°
2026-04-24 09:30 32.61778 114.65881 38105 ft 433 kts 192°
2026-04-24 09:31 32.55809 114.65318 38104 ft 433 kts 192°
2026-04-24 09:31 32.49800 114.64752 38101 ft 433 kts 192°
2026-04-24 09:32 32.43788 114.64186 38102 ft 433 kts 192°
2026-04-24 09:32 32.37775 114.63620 38108 ft 433 kts 192°
2026-04-24 09:33 32.31755 114.63037 38113 ft 433 kts 193°
2026-04-24 09:33 32.25783 114.62452 38108 ft 433 kts 193°
2026-04-24 09:34 32.19771 114.61866 38107 ft 434 kts 193°
2026-04-24 09:34 32.13747 114.61281 38118 ft 434 kts 193°
2026-04-24 09:35 32.07721 114.60696 38107 ft 434 kts 193°
2026-04-24 09:35 32.01687 114.60112 38120 ft 434 kts 193°
2026-04-24 09:36 31.95660 114.59529 38128 ft 435 kts 193°
2026-04-24 09:36 31.89630 114.58947 38130 ft 435 kts 193°
2026-04-24 09:37 31.83603 114.58366 38122 ft 433 kts 193°
2026-04-24 09:37 31.77631 114.57791 38125 ft 433 kts 193°
2026-04-24 09:38 31.71615 114.57212 38130 ft 434 kts 193°
2026-04-24 09:38 31.65595 114.56633 38131 ft 433 kts 193°
2026-04-24 09:39 31.59581 114.56056 38130 ft 433 kts 193°
2026-04-24 09:39 31.54584 114.55578 38131 ft 433 kts 193°
2026-04-24 09:40 31.48572 114.55006 38134 ft 434 kts 192°
2026-04-24 09:40 31.42553 114.54450 38135 ft 433 kts 193°
2026-04-24 09:41 31.36551 114.53808 38140 ft 433 kts 193°
2026-04-24 09:41 31.30583 114.53245 38140 ft 433 kts 193°
2026-04-24 09:42 31.24714 114.52088 38137 ft 422 kts 202°
2026-04-24 09:42 31.19229 114.49864 38139 ft 413 kts 211°
2026-04-24 09:43 31.14049 114.47005 38140 ft 412 kts 212°
2026-04-24 09:43 31.08852 114.44151 38139 ft 412 kts 212°
2026-04-24 09:44 31.03664 114.41315 38137 ft 412 kts 212°
2026-04-24 09:44 30.98464 114.38476 38138 ft 412 kts 212°
2026-04-24 09:45 30.93270 114.35644 38122 ft 412 kts 212°
2026-04-24 09:45 30.88072 114.32814 38125 ft 412 kts 212°
2026-04-24 09:46 30.82882 114.29994 38121 ft 412 kts 212°
2026-04-24 09:46 30.77715 114.27187 38120 ft 412 kts 212°
2026-04-24 09:47 30.72519 114.24360 38119 ft 412 kts 212°
2026-04-24 09:47 30.67365 114.21561 38119 ft 412 kts 212°
2026-04-24 09:48 30.62135 114.18725 38126 ft 411 kts 212°
2026-04-24 09:48 30.56943 114.15911 38144 ft 411 kts 212°
2026-04-24 09:49 30.51758 114.13107 38145 ft 411 kts 212°
2026-04-24 09:49 30.46560 114.10299 38148 ft 411 kts 212°
2026-04-24 09:50 30.41400 114.07516 38152 ft 411 kts 212°
2026-04-24 09:50 30.36206 114.04716 38149 ft 411 kts 212°
2026-04-24 09:51 30.31019 114.01924 38149 ft 411 kts 212°
2026-04-24 09:51 30.25854 113.99147 38154 ft 411 kts 212°
2026-04-24 09:52 30.20669 113.96365 38152 ft 411 kts 211°
2026-04-24 09:52 30.15481 113.93589 38153 ft 410 kts 211°
2026-04-24 09:53 30.10295 113.90817 38152 ft 410 kts 211°
2026-04-24 09:53 30.05120 113.88053 38148 ft 410 kts 211°
2026-04-24 09:54 29.99935 113.85287 38147 ft 410 kts 211°
2026-04-24 09:54 29.94788 113.82545 38152 ft 410 kts 211°
2026-04-24 09:55 29.89507 113.79983 38150 ft 415 kts 205°
2026-04-24 09:55 29.83833 113.78388 38148 ft 424 kts 196°
2026-04-24 09:56 29.77892 113.77813 38149 ft 430 kts 191°
2026-04-24 09:56 29.71909 113.77411 38146 ft 430 kts 192°
2026-04-24 09:57 29.65938 113.76995 38157 ft 430 kts 192°
2026-04-24 09:57 29.60002 113.76582 38158 ft 430 kts 192°
2026-04-24 09:58 29.54020 113.76166 38160 ft 430 kts 192°
2026-04-24 09:58 29.48038 113.75752 38164 ft 430 kts 192°
2026-04-24 09:59 29.42063 113.75338 38161 ft 430 kts 192°
2026-04-24 09:59 29.36091 113.74925 38158 ft 429 kts 192°
2026-04-24 10:00 29.30175 113.74517 38156 ft 428 kts 192°
2026-04-24 10:00 29.24223 113.74112 38160 ft 429 kts 190°
2026-04-24 10:01 29.18239 113.74200 38159 ft 433 kts 187°
2026-04-24 10:01 29.12199 113.74386 38166 ft 433 kts 187°
2026-04-24 10:02 29.06173 113.74563 38159 ft 432 kts 187°
2026-04-24 10:02 29.00198 113.74737 38153 ft 431 kts 187°
2026-04-24 10:03 28.94201 113.74911 38144 ft 431 kts 187°
2026-04-24 10:03 28.88206 113.75084 38143 ft 430 kts 187°
2026-04-24 10:04 28.82211 113.75258 38157 ft 432 kts 187°
2026-04-24 10:04 28.76192 113.75432 38156 ft 433 kts 187°
2026-04-24 10:05 28.70234 113.75262 38161 ft 426 kts 193°
2026-04-24 10:05 28.64320 113.74813 38159 ft 426 kts 193°
2026-04-24 10:06 28.55484 113.74161 38155 ft 426 kts 193°
2026-04-24 10:07 28.49570 113.73728 38152 ft 425 kts 193°
2026-04-24 10:07 28.43671 113.73295 38152 ft 424 kts 193°
2026-04-24 10:08 28.37795 113.72866 38150 ft 422 kts 193°
2026-04-24 10:08 28.31969 113.72438 38146 ft 423 kts 193°
2026-04-24 10:09 28.26088 113.72012 38154 ft 423 kts 193°
2026-04-24 10:09 28.20214 113.71588 38144 ft 422 kts 193°
2026-04-24 10:10 28.14355 113.71158 38150 ft 422 kts 193°
2026-04-24 10:10 28.08500 113.70691 38152 ft 421 kts 194°
2026-04-24 10:11 28.02666 113.70162 38150 ft 420 kts 194°
2026-04-24 10:11 27.96839 113.69632 38144 ft 420 kts 194°
2026-04-24 10:12 27.91018 113.69110 38147 ft 419 kts 194°
2026-04-24 10:12 27.85208 113.68591 38141 ft 418 kts 194°
2026-04-24 10:13 27.79405 113.68073 38149 ft 418 kts 194°
2026-04-24 10:13 27.73644 113.67560 38148 ft 417 kts 195°
2026-04-24 10:14 27.67847 113.67044 38153 ft 418 kts 195°
2026-04-24 10:14 27.62020 113.66662 38152 ft 422 kts 192°
2026-04-24 10:15 27.56143 113.66543 38155 ft 422 kts 192°
2026-04-24 10:15 27.50278 113.66415 38136 ft 420 kts 192°
2026-04-24 10:16 27.44486 113.66287 38145 ft 419 kts 192°
2026-04-24 10:16 27.38685 113.66159 38112 ft 414 kts 192°
2026-04-24 10:17 27.32918 113.66028 38148 ft 416 kts 192°
2026-04-24 10:17 27.27133 113.65900 38148 ft 416 kts 192°
2026-04-24 10:18 27.21350 113.65813 38141 ft 419 kts 190°
2026-04-24 10:18 27.15468 113.66505 38138 ft 432 kts 181°
2026-04-24 10:19 27.09558 113.68159 38148 ft 439 kts 178°
2026-04-24 10:19 27.03663 113.69921 38139 ft 437 kts 178°
2026-04-24 10:20 26.97824 113.71647 38148 ft 436 kts 178°
2026-04-24 10:20 26.91943 113.73378 38138 ft 436 kts 178°
2026-04-24 10:21 26.86076 113.75106 38140 ft 435 kts 179°
2026-04-24 10:21 26.80207 113.76832 38138 ft 435 kts 179°
2026-04-24 10:22 26.74355 113.78552 38144 ft 434 kts 179°
2026-04-24 10:22 26.68520 113.80346 38134 ft 435 kts 178°
2026-04-24 10:23 26.62728 113.82183 38139 ft 435 kts 179°
2026-04-24 10:23 26.56916 113.84011 38134 ft 433 kts 179°
2026-04-24 10:24 26.51103 113.85831 38136 ft 433 kts 179°
2026-04-24 10:24 26.45304 113.87572 38129 ft 430 kts 180°
2026-04-24 10:25 26.39506 113.89224 38133 ft 430 kts 180°
2026-04-24 10:25 26.33711 113.90888 38143 ft 431 kts 180°
2026-04-24 10:26 26.27897 113.92563 38154 ft 433 kts 180°
2026-04-24 10:26 26.22100 113.94237 38142 ft 433 kts 180°
2026-04-24 10:27 26.16252 113.95922 38150 ft 434 kts 180°
2026-04-24 10:27 26.10394 113.97607 38140 ft 436 kts 180°
2026-04-24 10:28 26.05480 113.99020 38151 ft 436 kts 180°
2026-04-24 10:28 25.98647 114.00998 38152 ft 437 kts 179°
2026-04-24 10:29 25.93745 114.02462 38153 ft 438 kts 179°
2026-04-24 10:29 25.87864 114.04217 38143 ft 439 kts 179°
2026-04-24 10:30 25.81972 114.05968 38145 ft 436 kts 179°
2026-04-24 10:30 25.76089 114.07709 38142 ft 439 kts 179°
2026-04-24 10:31 25.70171 114.09460 38147 ft 440 kts 179°
2026-04-24 10:31 25.64266 114.11209 38142 ft 440 kts 179°
2026-04-24 10:32 25.58387 114.12948 38149 ft 439 kts 179°
2026-04-24 10:32 25.52490 114.14690 38151 ft 438 kts 179°
2026-04-24 10:33 25.46578 114.16429 38138 ft 440 kts 179°
2026-04-24 10:33 25.40675 114.18171 38140 ft 438 kts 178°
2026-04-24 10:34 25.34782 114.19905 38142 ft 437 kts 178°
2026-04-24 10:34 25.28941 114.21621 38140 ft 437 kts 178°
2026-04-24 10:35 25.23068 114.23347 38148 ft 437 kts 178°
2026-04-24 10:35 25.17197 114.25070 38144 ft 437 kts 178°
2026-04-24 10:36 25.11324 114.26383 38147 ft 421 kts 187°
2026-04-24 10:36 25.05595 114.26370 38146 ft 404 kts 198°
2026-04-24 10:37 25.00174 114.25305 38147 ft 395 kts 202°
2026-04-24 10:37 24.94762 114.24113 38143 ft 396 kts 202°
2026-04-24 10:38 24.89340 114.22932 38151 ft 398 kts 202°
2026-04-24 10:38 24.83884 114.21746 38156 ft 400 kts 201°
2026-04-24 10:39 24.78417 114.20559 38150 ft 399 kts 201°
2026-04-24 10:39 24.72968 114.19375 38142 ft 400 kts 201°
2026-04-24 10:40 24.67503 114.18189 38146 ft 400 kts 201°
2026-04-24 10:40 24.62062 114.17010 38145 ft 401 kts 201°
2026-04-24 10:41 24.56563 114.15819 38149 ft 402 kts 201°
2026-04-24 10:41 24.51073 114.14633 38139 ft 403 kts 201°
2026-04-24 10:42 24.45565 114.13442 38137 ft 403 kts 201°
2026-04-24 10:42 24.40059 114.12253 38128 ft 403 kts 201°
2026-04-24 10:43 24.34565 114.11026 38132 ft 401 kts 204°
2026-04-24 10:43 24.29210 114.09401 38125 ft 399 kts 205°
2026-04-24 10:44 24.23850 114.07763 38131 ft 400 kts 204°
2026-04-24 10:44 24.18509 114.06137 38127 ft 401 kts 204°
2026-04-24 10:45 24.13117 114.04497 38120 ft 402 kts 204°
2026-04-24 10:45 24.07716 114.02857 38118 ft 403 kts 204°
2026-04-24 10:46 24.02298 114.01213 38132 ft 406 kts 204°
2026-04-24 10:46 23.96860 113.99565 38135 ft 404 kts 204°
2026-04-24 10:47 23.91444 113.97921 38138 ft 408 kts 203°
2026-04-24 10:47 23.85975 113.96267 38131 ft 408 kts 203°
2026-04-24 10:48 23.80495 113.94609 38141 ft 409 kts 203°
2026-04-24 10:48 23.75003 113.92950 38138 ft 409 kts 203°
2026-04-24 10:49 23.69513 113.91292 38123 ft 410 kts 203°
2026-04-24 10:49 23.64009 113.89632 38127 ft 411 kts 202°
2026-04-24 10:50 23.58509 113.87974 38120 ft 410 kts 202°
2026-04-24 10:50 23.53045 113.86328 38127 ft 409 kts 202°
2026-04-24 10:51 23.47545 113.84671 38119 ft 409 kts 202°
2026-04-24 10:51 23.42047 113.83010 38114 ft 410 kts 202°
2026-04-24 10:52 23.36541 113.81349 38111 ft 411 kts 202°
2026-04-24 10:52 23.31071 113.79701 38110 ft 411 kts 202°
2026-04-24 10:53 23.25544 113.78036 38106 ft 412 kts 202°
2026-04-24 10:53 23.20007 113.76371 38109 ft 414 kts 202°
2026-04-24 10:54 23.14451 113.74701 38112 ft 415 kts 201°
2026-04-24 10:54 23.11666 113.73872 38220 ft 413 kts 204°
2026-04-24 10:54 23.08919 113.73062 38120 ft 400 kts 204°
2026-04-24 10:55 23.03660 113.71490 38120 ft 395 kts 205°
2026-04-24 10:55 22.98317 113.69875 38113 ft 401 kts 205°
2026-04-24 10:56 22.92918 113.68256 38114 ft 402 kts 204°
2026-04-24 10:56 22.87517 113.66640 38115 ft 402 kts 205°
2026-04-24 10:57 22.82130 113.64997 38119 ft 402 kts 205°
2026-04-24 10:57 22.76730 113.63344 38119 ft 403 kts 205°
2026-04-24 10:58 22.71318 113.61693 38126 ft 404 kts 205°
2026-04-24 10:58 22.65932 113.60090 38125 ft 409 kts 201°
2026-04-24 10:58 22.63080 113.59660 38126 ft 420 kts 192°
2026-04-24 10:59 22.60120 113.59715 38127 ft 432 kts 184°
2026-04-24 10:59 22.57121 113.60285 38123 ft 444 kts 175°
2026-04-24 10:59 22.54165 113.61397 38117 ft 458 kts 165°
2026-04-24 10:59 22.51324 113.63076 38124 ft 471 kts 155°
2026-04-24 11:00 22.48723 113.65307 38116 ft 485 kts 144°
2026-04-24 11:00 22.46459 113.68070 38115 ft 498 kts 133°
2026-04-24 11:00 22.44577 113.71252 38126 ft 504 kts 128°
2026-04-24 11:01 22.41545 113.76629 38126 ft 503 kts 129°
2026-04-24 11:01 22.37273 113.84133 38119 ft 499 kts 130°
2026-04-24 11:02 22.33095 113.89928 38154 ft 486 kts 141°
2026-04-24 11:02 22.28504 113.95298 38152 ft 485 kts 141°
2026-04-24 11:03 22.23846 114.00547 38138 ft 479 kts 147°
2026-04-24 11:03 22.18638 114.04817 38143 ft 465 kts 157°
2026-04-24 11:04 22.13005 114.08147 38136 ft 460 kts 161°
2026-04-24 11:04 22.07359 114.11379 38111 ft 458 kts 161°
2026-04-24 11:05 22.01739 114.14607 38103 ft 457 kts 161°
2026-04-24 11:05 21.96149 114.17810 38112 ft 457 kts 161°
2026-04-24 11:06 21.90534 114.21024 38096 ft 457 kts 160°
2026-04-24 11:06 21.84923 114.24233 38095 ft 456 kts 160°
2026-04-24 11:07 21.76540 114.29022 38093 ft 456 kts 160°
2026-04-24 11:07 21.70932 114.32223 38094 ft 456 kts 160°
2026-04-24 11:08 21.65322 114.35421 38091 ft 456 kts 160°
2026-04-24 11:08 21.59719 114.38613 38083 ft 456 kts 160°
2026-04-24 11:09 21.54112 114.41805 38076 ft 456 kts 160°
2026-04-24 11:09 21.48511 114.44990 38079 ft 456 kts 159°
2026-04-24 11:10 21.42937 114.48157 38072 ft 456 kts 159°
2026-04-24 11:10 21.37330 114.51340 38070 ft 456 kts 159°
2026-04-24 11:11 21.31716 114.54525 38069 ft 456 kts 159°
2026-04-24 11:11 21.26098 114.57709 38071 ft 457 kts 159°
2026-04-24 11:12 21.20477 114.60891 38070 ft 457 kts 159°
2026-04-24 11:12 21.14838 114.64082 38064 ft 458 kts 159°
2026-04-24 11:13 21.09194 114.67272 38064 ft 458 kts 159°
2026-04-24 11:13 21.03580 114.70443 38062 ft 459 kts 159°
2026-04-24 11:14 20.97929 114.73632 38063 ft 460 kts 159°
2026-04-24 11:14 20.92259 114.76828 38065 ft 460 kts 159°
2026-04-24 11:15 20.86579 114.80028 38068 ft 461 kts 159°
2026-04-24 11:15 20.80927 114.83210 38068 ft 462 kts 159°
2026-04-24 11:16 20.75232 114.86412 38069 ft 462 kts 159°
2026-04-24 11:16 20.69530 114.89616 38067 ft 463 kts 159°
2026-04-24 11:17 20.64791 114.92277 38067 ft 463 kts 158°
2026-04-24 11:17 20.58142 114.96007 38068 ft 464 kts 158°
2026-04-24 11:18 20.53352 114.98692 38069 ft 464 kts 159°
2026-04-24 11:18 20.47651 115.01885 38072 ft 465 kts 159°
2026-04-24 11:19 20.41920 115.05092 38068 ft 465 kts 158°
2026-04-24 11:19 20.36189 115.08297 38072 ft 465 kts 158°
2026-04-24 11:20 20.30447 115.11505 38069 ft 466 kts 158°
2026-04-24 11:20 20.24708 115.14708 38067 ft 466 kts 158°
2026-04-24 11:21 20.18986 115.17900 38073 ft 466 kts 158°
2026-04-24 11:21 20.13240 115.21102 38065 ft 465 kts 158°
2026-04-24 11:22 20.07507 115.24295 38052 ft 464 kts 158°
2026-04-24 11:22 20.01804 115.27468 38057 ft 463 kts 158°
2026-04-24 11:23 19.96079 115.30649 38063 ft 463 kts 158°
2026-04-24 11:23 19.90371 115.33819 38059 ft 463 kts 158°
2026-04-24 11:24 19.84700 115.36966 38070 ft 462 kts 158°
2026-04-24 11:24 19.78998 115.40128 38068 ft 462 kts 158°
2026-04-24 11:25 19.73296 115.43287 38067 ft 462 kts 158°
2026-04-24 11:25 19.67600 115.46440 38062 ft 461 kts 158°
2026-04-24 11:26 19.61909 115.49588 38061 ft 461 kts 157°
2026-04-24 11:26 19.56217 115.52734 38063 ft 461 kts 157°
2026-04-24 11:27 19.50564 115.55856 38058 ft 461 kts 157°
2026-04-24 11:27 19.44874 115.58995 38054 ft 461 kts 157°
2026-04-24 11:28 19.39181 115.62134 38046 ft 461 kts 157°
2026-04-24 11:28 19.33480 115.65274 38038 ft 462 kts 157°
2026-04-24 11:29 19.27775 115.68415 38064 ft 463 kts 157°
2026-04-24 11:29 19.22016 115.71581 38062 ft 469 kts 156°
2026-04-24 11:30 19.16215 115.74770 38061 ft 470 kts 156°
2026-04-24 11:30 19.10395 115.77967 38061 ft 472 kts 156°
2026-04-24 11:31 19.04562 115.81169 38062 ft 472 kts 156°
2026-04-24 11:31 18.98762 115.84351 38063 ft 473 kts 156°
2026-04-24 11:32 18.92909 115.87558 38065 ft 474 kts 156°
2026-04-24 11:32 18.87040 115.90774 38068 ft 475 kts 156°
2026-04-24 11:33 18.81163 115.93992 38069 ft 476 kts 156°
2026-04-24 11:33 18.75282 115.97210 38062 ft 475 kts 156°
2026-04-24 11:34 18.69448 116.00400 38057 ft 474 kts 156°
2026-04-24 11:34 18.63592 116.03599 38064 ft 474 kts 156°
2026-04-24 11:35 18.57731 116.06798 38060 ft 473 kts 156°
2026-04-24 11:35 18.51918 116.09968 38060 ft 472 kts 156°
2026-04-24 11:36 18.46048 116.13168 38054 ft 471 kts 156°
2026-04-24 11:36 18.40233 116.16335 38051 ft 470 kts 156°
2026-04-24 11:37 18.34463 116.19474 38045 ft 469 kts 156°
2026-04-24 11:37 18.28668 116.22625 38047 ft 468 kts 156°
2026-04-24 11:38 18.22872 116.25774 38045 ft 468 kts 156°
2026-04-24 11:38 18.17087 116.28914 38038 ft 467 kts 156°
2026-04-24 11:39 18.11304 116.32052 38038 ft 467 kts 156°
2026-04-24 11:39 18.05523 116.35186 38042 ft 467 kts 156°
2026-04-24 11:40 17.99738 116.38319 38040 ft 468 kts 156°
2026-04-24 11:40 17.93987 116.41433 38042 ft 468 kts 156°
2026-04-24 11:41 17.88193 116.44567 38047 ft 468 kts 156°
2026-04-24 11:41 17.82393 116.47701 38057 ft 469 kts 156°
2026-04-24 11:42 17.76590 116.50836 38054 ft 469 kts 156°
2026-04-24 11:42 17.70778 116.53972 38067 ft 469 kts 156°
2026-04-24 11:43 17.64963 116.57108 38068 ft 469 kts 155°
2026-04-24 11:43 17.59169 116.60231 38051 ft 467 kts 155°
2026-04-24 11:44 17.53426 116.63324 38056 ft 467 kts 155°
2026-04-24 11:44 17.47648 116.66432 38056 ft 466 kts 155°
2026-04-24 11:45 17.41859 116.69545 38053 ft 466 kts 155°
2026-04-24 11:45 17.36078 116.72652 38054 ft 466 kts 155°
2026-04-24 11:46 17.30346 116.75730 38057 ft 466 kts 155°
2026-04-24 11:46 17.24581 116.78824 38058 ft 466 kts 155°
2026-04-24 11:47 17.18806 116.81920 38057 ft 465 kts 155°
2026-04-24 11:47 17.13039 116.85010 38057 ft 465 kts 155°
2026-04-24 11:48 17.07276 116.88096 38054 ft 465 kts 155°
2026-04-24 11:48 17.01520 116.91176 38057 ft 464 kts 155°
2026-04-24 11:49 16.95768 116.94251 38055 ft 464 kts 154°
2026-04-24 11:49 16.90055 116.97304 38056 ft 464 kts 154°
2026-04-24 11:50 16.84307 117.00374 38057 ft 463 kts 154°
2026-04-24 11:50 16.78566 117.03437 38051 ft 463 kts 154°
2026-04-24 11:51 16.72828 117.06497 38049 ft 463 kts 154°
2026-04-24 11:51 16.67097 117.09551 38050 ft 463 kts 154°
2026-04-24 11:52 16.61361 117.12605 38049 ft 462 kts 154°
2026-04-24 11:52 16.55651 117.15644 38046 ft 462 kts 154°
2026-04-24 11:53 16.49863 117.18568 38040 ft 461 kts 161°
2026-04-24 11:53 16.43652 117.19959 38036 ft 456 kts 179°
2026-04-24 11:54 16.37344 117.19532 38027 ft 453 kts 189°
2026-04-24 11:54 16.31111 117.18719 38035 ft 454 kts 188°
2026-04-24 11:55 16.24833 117.17912 38038 ft 455 kts 188°
2026-04-24 11:55 16.18544 117.17102 38036 ft 455 kts 188°
2026-04-24 11:56 16.12250 117.16292 38041 ft 456 kts 188°
2026-04-24 11:56 16.05934 117.15479 38047 ft 457 kts 188°
2026-04-24 11:57 15.99646 117.14670 38049 ft 458 kts 188°
2026-04-24 11:57 15.93323 117.13857 38050 ft 458 kts 188°
2026-04-24 11:58 15.86989 117.13044 38055 ft 459 kts 188°
2026-04-24 11:58 15.80634 117.12228 38054 ft 460 kts 188°
2026-04-24 11:59 15.74283 117.11413 38055 ft 460 kts 188°
2026-04-24 11:59 15.67927 117.10598 38055 ft 460 kts 188°
2026-04-24 12:00 15.61558 117.09782 38052 ft 461 kts 188°
2026-04-24 12:00 15.55229 117.08971 38050 ft 461 kts 188°
2026-04-24 12:01 15.48858 117.08156 38046 ft 461 kts 188°
2026-04-24 12:01 15.42481 117.07341 38044 ft 461 kts 188°
2026-04-24 12:02 15.36106 117.06526 38044 ft 461 kts 188°
2026-04-24 12:02 15.29727 117.05711 38042 ft 461 kts 188°
2026-04-24 12:03 15.24426 117.05035 38041 ft 462 kts 188°
2026-04-24 12:03 15.18055 117.04222 38040 ft 462 kts 188°
2026-04-24 12:04 15.11673 117.03408 38037 ft 462 kts 188°
2026-04-24 12:04 15.05321 117.02599 38038 ft 462 kts 188°
2026-04-24 12:05 14.98947 117.01787 38038 ft 462 kts 188°
2026-04-24 12:05 14.92564 117.00975 38038 ft 462 kts 187°
2026-04-24 12:06 14.86176 117.00162 38038 ft 462 kts 187°
2026-04-24 12:06 14.79797 116.99351 38036 ft 462 kts 187°
2026-04-24 12:07 14.73417 116.98540 38039 ft 462 kts 187°
2026-04-24 12:07 14.67034 116.97730 38040 ft 462 kts 187°
2026-04-24 12:08 14.60650 116.96920 38042 ft 462 kts 187°
2026-04-24 12:08 14.54307 116.96115 38040 ft 462 kts 187°
2026-04-24 12:09 14.47925 116.95306 38041 ft 462 kts 187°
2026-04-24 12:09 14.41547 116.94499 38037 ft 462 kts 187°
2026-04-24 12:10 14.35171 116.93691 38035 ft 461 kts 187°
2026-04-24 12:11 14.25636 116.92485 38035 ft 461 kts 187°
2026-04-24 12:11 14.19267 116.91680 38033 ft 461 kts 187°
2026-04-24 12:12 14.12892 116.90874 38029 ft 461 kts 187°
2026-04-24 12:12 14.06523 116.90070 38032 ft 461 kts 187°
2026-04-24 12:13 14.00148 116.89266 38027 ft 461 kts 187°
2026-04-24 12:13 13.93789 116.88464 38027 ft 461 kts 187°
2026-04-24 12:14 13.87419 116.87661 38027 ft 461 kts 187°
2026-04-24 12:14 13.81046 116.86857 38028 ft 461 kts 187°
2026-04-24 12:15 13.74722 116.86061 38028 ft 461 kts 187°
2026-04-24 12:15 13.68353 116.85260 38022 ft 461 kts 187°
2026-04-24 12:16 13.61986 116.84459 38024 ft 461 kts 187°
2026-04-24 12:16 13.55617 116.83658 38027 ft 461 kts 187°
2026-04-24 12:17 13.49236 116.82856 38029 ft 461 kts 187°
2026-04-24 12:17 13.42866 116.82056 38028 ft 461 kts 187°
2026-04-24 12:18 13.36525 116.81260 38031 ft 462 kts 187°
2026-04-24 12:18 13.30223 116.80470 38032 ft 462 kts 187°
2026-04-24 12:19 13.23840 116.79669 38025 ft 461 kts 187°
2026-04-24 12:19 13.17460 116.78869 38028 ft 461 kts 187°
2026-04-24 12:20 13.11085 116.78071 38030 ft 462 kts 187°
2026-04-24 12:20 13.04712 116.77273 38029 ft 462 kts 187°
2026-04-24 12:21 12.98323 116.76474 38027 ft 461 kts 187°
2026-04-24 12:21 12.91948 116.75676 38028 ft 461 kts 187°
2026-04-24 12:22 12.85614 116.74885 38027 ft 461 kts 187°
2026-04-24 12:22 12.79245 116.74089 38025 ft 461 kts 187°
2026-04-24 12:23 12.72870 116.73293 38026 ft 461 kts 187°
2026-04-24 12:23 12.66499 116.72498 38024 ft 461 kts 187°
2026-04-24 12:24 12.60121 116.71703 38023 ft 461 kts 187°
2026-04-24 12:24 12.53756 116.70909 38026 ft 461 kts 187°
2026-04-24 12:25 12.47427 116.70120 38025 ft 460 kts 187°
2026-04-24 12:25 12.41060 116.69327 38026 ft 460 kts 187°
2026-04-24 12:26 12.34693 116.68535 38027 ft 461 kts 187°
2026-04-24 12:26 12.28307 116.67740 38026 ft 460 kts 187°
2026-04-24 12:27 12.21997 116.66955 38024 ft 459 kts 187°
2026-04-24 12:27 12.15648 116.66166 38025 ft 459 kts 187°
2026-04-24 12:28 12.09311 116.65379 38019 ft 457 kts 187°
2026-04-24 12:28 12.02982 116.64593 38025 ft 458 kts 187°
2026-04-24 12:29 11.96671 116.63810 38017 ft 456 kts 187°
2026-04-24 12:29 11.90395 116.63031 38012 ft 455 kts 187°
2026-04-24 12:30 11.84107 116.62252 38013 ft 454 kts 187°
2026-04-24 12:30 11.77839 116.61475 38005 ft 453 kts 187°
2026-04-24 12:31 11.71623 116.60705 38006 ft 452 kts 187°
2026-04-24 12:31 11.65375 116.59931 38008 ft 452 kts 187°
2026-04-24 12:32 11.59133 116.59158 38007 ft 452 kts 187°
2026-04-24 12:32 11.52889 116.58385 38007 ft 451 kts 187°
2026-04-24 12:33 11.46652 116.57614 38009 ft 451 kts 187°
2026-04-24 12:33 11.40419 116.56844 38008 ft 451 kts 188°
2026-04-24 12:34 11.34179 116.56073 38014 ft 451 kts 188°
2026-04-24 12:34 11.27937 116.55303 38016 ft 451 kts 188°
2026-04-24 12:35 11.22747 116.54661 38020 ft 452 kts 188°
2026-04-24 12:35 11.15492 116.53765 38015 ft 452 kts 188°
2026-04-24 12:36 11.09249 116.52996 38024 ft 452 kts 188°
2026-04-24 12:36 11.03000 116.52225 38018 ft 452 kts 188°
2026-04-24 12:37 10.96748 116.51455 38024 ft 452 kts 188°
2026-04-24 12:37 10.90508 116.50686 38017 ft 451 kts 188°
2026-04-24 12:38 10.84288 116.49920 38018 ft 450 kts 188°
2026-04-24 12:38 10.78069 116.49154 38014 ft 450 kts 188°
2026-04-24 12:39 10.65681 116.47630 38014 ft 449 kts 188°
2026-04-24 12:40 10.59486 116.46869 38011 ft 448 kts 188°
2026-04-24 12:40 10.53298 116.46108 38012 ft 447 kts 188°
2026-04-24 12:41 10.47129 116.45351 38001 ft 446 kts 188°
2026-04-24 12:41 10.41003 116.44598 38001 ft 445 kts 188°
2026-04-24 12:42 10.34852 116.43843 37997 ft 445 kts 188°
2026-04-24 12:42 10.28706 116.43089 37993 ft 445 kts 188°
2026-04-24 12:43 10.22554 116.42334 37995 ft 445 kts 188°
2026-04-24 12:43 10.16408 116.41581 37998 ft 444 kts 188°
2026-04-24 12:44 10.10263 116.40827 37995 ft 445 kts 188°
2026-04-24 12:44 10.04120 116.40074 37996 ft 445 kts 188°
2026-04-24 12:45 9.97962 116.39320 38001 ft 445 kts 188°
2026-04-24 12:45 9.91808 116.38567 37998 ft 446 kts 188°
2026-04-24 12:46 9.85646 116.37812 37997 ft 446 kts 188°
2026-04-24 12:46 9.79511 116.37062 38000 ft 447 kts 188°
2026-04-24 12:47 9.73331 116.36306 38002 ft 447 kts 188°
2026-04-24 12:47 9.67144 116.35550 38007 ft 448 kts 188°
2026-04-24 12:48 9.60946 116.34792 38012 ft 448 kts 187°
2026-04-24 12:48 9.54748 116.34035 38009 ft 449 kts 187°
2026-04-24 12:49 9.48537 116.33277 38004 ft 448 kts 187°
2026-04-24 12:49 9.42349 116.32522 38005 ft 448 kts 187°
2026-04-24 12:50 9.37206 116.31894 38005 ft 448 kts 187°
2026-04-24 12:50 9.31010 116.31138 38003 ft 448 kts 187°
2026-04-24 12:51 9.23810 116.30260 38005 ft 448 kts 187°
2026-04-24 12:51 9.18657 116.29632 38006 ft 448 kts 187°
2026-04-24 12:52 9.12453 116.28876 38009 ft 449 kts 187°
2026-04-24 12:52 9.06253 116.28121 38004 ft 447 kts 187°
2026-04-24 12:53 9.00073 116.27368 38002 ft 447 kts 187°
2026-04-24 12:53 8.93888 116.26615 38003 ft 447 kts 187°
2026-04-24 12:54 8.87744 116.25868 38002 ft 447 kts 187°
2026-04-24 12:54 8.81571 116.25117 38002 ft 447 kts 187°
2026-04-24 12:55 8.75392 116.24365 38002 ft 447 kts 187°
2026-04-24 12:55 8.69219 116.23615 38000 ft 446 kts 187°
2026-04-24 12:56 8.63056 116.22870 38001 ft 447 kts 186°
2026-04-24 12:56 8.56860 116.22381 37996 ft 445 kts 184°
2026-04-24 12:57 8.50671 116.21955 37996 ft 446 kts 185°
2026-04-24 12:57 8.44485 116.21496 37997 ft 445 kts 185°
2026-04-24 12:58 8.38302 116.21024 37999 ft 445 kts 185°
2026-04-24 12:58 8.32163 116.20555 37999 ft 445 kts 185°
2026-04-24 12:59 8.25978 116.20083 37996 ft 445 kts 185°
2026-04-24 12:59 8.19795 116.19612 37995 ft 446 kts 185°
2026-04-24 13:00 8.15412 116.19283 37993 ft 446 kts 185°
2026-04-24 13:00 8.14689 116.19232 37994 ft 446 kts 185°
2026-04-24 13:01 8.08499 116.18797 37943 ft 444 kts 184°
2026-04-24 13:01 8.05423 116.18581 37610 ft 442 kts 184°
2026-04-24 13:01 8.02357 116.18363 37000 ft 442 kts 184°
2026-04-24 13:01 7.99280 116.18145 36285 ft 444 kts 184°
2026-04-24 13:02 7.96225 116.17927 35526 ft 447 kts 184°
2026-04-24 13:02 7.93106 116.17705 34765 ft 450 kts 184°
2026-04-24 13:02 7.89965 116.17481 34029 ft 453 kts 184°
2026-04-24 13:02 7.86808 116.17256 33193 ft 455 kts 184°
2026-04-24 13:03 7.83635 116.17031 32304 ft 459 kts 184°
2026-04-24 13:03 7.80427 116.16804 31410 ft 464 kts 184°
2026-04-24 13:03 7.77185 116.16573 30519 ft 468 kts 184°
2026-04-24 13:03 7.73928 116.16342 29739 ft 470 kts 184°
2026-04-24 13:04 7.70686 116.16111 29145 ft 464 kts 184°
2026-04-24 13:04 7.67525 116.15886 28597 ft 459 kts 183°
2026-04-24 13:04 7.64360 116.15661 28000 ft 454 kts 183°
2026-04-24 13:04 7.61226 116.15438 27435 ft 449 kts 183°
2026-04-24 13:05 7.58126 116.15217 26877 ft 445 kts 183°
2026-04-24 13:05 7.55049 116.14999 26323 ft 440 kts 182°
2026-04-24 13:05 7.52007 116.14782 25797 ft 436 kts 182°
2026-04-24 13:05 7.48996 116.14569 25272 ft 432 kts 182°
2026-04-24 13:06 7.46014 116.14357 24751 ft 428 kts 182°
2026-04-24 13:06 7.43057 116.14147 24258 ft 423 kts 182°
2026-04-24 13:06 7.40125 116.13939 23729 ft 420 kts 182°
2026-04-24 13:06 7.37218 116.13733 23187 ft 417 kts 182°
2026-04-24 13:07 7.34338 116.13529 22585 ft 413 kts 182°
2026-04-24 13:07 7.31478 116.13326 21990 ft 410 kts 182°
2026-04-24 13:07 7.28640 116.13125 21414 ft 407 kts 182°
2026-04-24 13:07 7.25826 116.12927 20852 ft 404 kts 182°
2026-04-24 13:08 7.23066 116.12732 20303 ft 401 kts 181°
2026-04-24 13:08 7.20287 116.12535 19767 ft 398 kts 181°
2026-04-24 13:08 7.17533 116.12339 19232 ft 395 kts 181°
2026-04-24 13:09 7.12081 116.11953 18212 ft 390 kts 181°
2026-04-24 13:09 7.09380 116.11762 17640 ft 387 kts 181°
2026-04-24 13:09 7.06703 116.11574 17108 ft 383 kts 181°
2026-04-24 13:09 7.04045 116.11386 16587 ft 380 kts 181°
2026-04-24 13:10 7.01425 116.11203 16062 ft 377 kts 181°
2026-04-24 13:10 6.98817 116.11019 15546 ft 374 kts 181°
2026-04-24 13:10 6.96265 116.10839 15052 ft 371 kts 181°
2026-04-24 13:10 6.93701 116.10658 14572 ft 368 kts 182°
2026-04-24 13:11 6.91154 116.10479 14082 ft 365 kts 182°
2026-04-24 13:11 6.88624 116.10300 13579 ft 363 kts 182°
2026-04-24 13:11 6.86115 116.10123 13080 ft 360 kts 182°
2026-04-24 13:11 6.83626 116.09946 12588 ft 356 kts 181°
2026-04-24 13:12 6.81160 116.09771 12092 ft 354 kts 181°
2026-04-24 13:12 6.78718 116.09600 11626 ft 350 kts 181°
2026-04-24 13:12 6.76301 116.09430 11229 ft 345 kts 181°
2026-04-24 13:12 6.73911 116.09261 11090 ft 347 kts 181°
2026-04-24 13:13 6.71485 116.09092 11049 ft 349 kts 181°
2026-04-24 13:13 6.69065 116.08921 11044 ft 348 kts 181°
2026-04-24 13:13 6.66639 116.08751 11043 ft 350 kts 181°
2026-04-24 13:13 6.64244 116.08582 11046 ft 350 kts 181°
2026-04-24 13:14 6.61819 116.08412 11044 ft 349 kts 181°
2026-04-24 13:14 6.59390 116.08242 11045 ft 349 kts 181°
2026-04-24 13:14 6.56965 116.08073 11045 ft 350 kts 181°
2026-04-24 13:14 6.54532 116.07903 11042 ft 350 kts 182°
2026-04-24 13:15 6.52105 116.07732 11042 ft 350 kts 182°
2026-04-24 13:15 6.49670 116.07561 11043 ft 350 kts 182°
2026-04-24 13:15 6.47243 116.07392 11043 ft 350 kts 182°
2026-04-24 13:15 6.44814 116.07221 10943 ft 347 kts 182°
2026-04-24 13:16 6.42405 116.07052 10579 ft 346 kts 182°
2026-04-24 13:16 6.40076 116.06578 10242 ft 344 kts 198°
2026-04-24 13:16 6.37877 116.05736 10120 ft 331 kts 199°
2026-04-24 13:16 6.35767 116.04913 10010 ft 317 kts 199°
2026-04-24 13:17 6.33746 116.04123 9897 ft 305 kts 199°
2026-04-24 13:17 6.31791 116.03353 9614 ft 300 kts 199°
2026-04-24 13:17 6.29853 116.02591 9196 ft 298 kts 199°
2026-04-24 13:17 6.27951 116.01845 8851 ft 295 kts 199°
2026-04-24 13:18 6.26047 116.01100 8490 ft 293 kts 199°
2026-04-24 13:18 6.24154 116.00360 8132 ft 290 kts 199°
2026-04-24 13:18 6.22279 115.99627 7777 ft 288 kts 199°
2026-04-24 13:18 6.20410 115.98897 7413 ft 286 kts 199°
2026-04-24 13:19 6.18565 115.98178 7086 ft 283 kts 199°
2026-04-24 13:19 6.16733 115.97467 6753 ft 281 kts 199°
2026-04-24 13:19 6.14916 115.96759 6407 ft 279 kts 199°
2026-04-24 13:19 6.13115 115.96058 6082 ft 276 kts 199°
2026-04-24 13:20 6.11348 115.95371 5688 ft 275 kts 199°
2026-04-24 13:20 6.09565 115.94682 5321 ft 274 kts 199°
2026-04-24 13:20 6.07792 115.93999 5083 ft 270 kts 199°
2026-04-24 13:20 6.06018 115.93319 5021 ft 274 kts 199°
2026-04-24 13:21 6.04239 115.92636 5012 ft 273 kts 199°
2026-04-24 13:21 6.02460 115.91949 5012 ft 274 kts 199°
2026-04-24 13:21 6.00685 115.91261 5012 ft 274 kts 199°
2026-04-24 13:21 5.98914 115.90571 4927 ft 272 kts 199°
2026-04-24 13:22 5.97151 115.89885 4658 ft 271 kts 199°
2026-04-24 13:22 5.95387 115.89200 4274 ft 272 kts 199°
2026-04-24 13:22 5.93625 115.88519 3900 ft 271 kts 199°
2026-04-24 13:22 5.91861 115.87840 3538 ft 271 kts 199°
2026-04-24 13:23 5.90120 115.87178 3184 ft 270 kts 199°
2026-04-24 13:23 5.88370 115.86513 3041 ft 270 kts 199°
2026-04-24 13:23 5.86607 115.85847 3007 ft 270 kts 199°
2026-04-24 13:23 5.84848 115.85181 3006 ft 269 kts 199°
2026-04-24 13:24 5.83087 115.84512 3005 ft 270 kts 199°
2026-04-24 13:24 5.81332 115.83844 3009 ft 269 kts 199°
2026-04-24 13:24 5.79575 115.83177 3005 ft 270 kts 199°
2026-04-24 13:24 5.77786 115.82751 3006 ft 258 kts 178°
2026-04-24 13:25 5.76152 115.83156 3009 ft 238 kts 149°
2026-04-24 13:25 5.74952 115.84188 3006 ft 220 kts 125°
2026-04-24 13:25 5.74296 115.85501 3012 ft 203 kts 105°
2026-04-24 13:25 5.73956 115.86827 3002 ft 190 kts 105°
2026-04-24 13:26 5.73595 115.88129 3011 ft 196 kts 106°
2026-04-24 13:26 5.73222 115.89431 3016 ft 193 kts 106°
2026-04-24 13:26 5.72853 115.90713 2976 ft 191 kts 106°
2026-04-24 13:26 5.72485 115.91988 2772 ft 190 kts 106°
2026-04-24 13:27 5.72118 115.93268 2715 ft 192 kts 105°
2026-04-24 13:27 5.72021 115.94595 2711 ft 193 kts 77°
2026-04-24 13:27 5.72681 115.95759 2714 ft 195 kts 46°
2026-04-24 13:27 5.73759 115.96557 2710 ft 196 kts 31°
2026-04-24 13:28 5.74989 115.97159 2710 ft 197 kts 25°
2026-04-24 13:28 5.76252 115.97689 2707 ft 197 kts 24°
2026-04-24 13:28 5.77523 115.98230 2706 ft 199 kts 24°
2026-04-24 13:28 5.78796 115.98771 2635 ft 198 kts 24°
2026-04-24 13:29 5.80044 115.99301 2400 ft 191 kts 24°
2026-04-24 13:29 5.81242 115.99810 2159 ft 180 kts 24°
2026-04-24 13:29 5.82342 116.00277 1942 ft 161 kts 24°
2026-04-24 13:29 5.83316 116.00691 1753 ft 145 kts 24°
2026-04-24 13:30 5.84205 116.01068 1583 ft 133 kts 24°
2026-04-24 13:30 5.85055 116.01430 1425 ft 135 kts 24°
2026-04-24 13:30 5.85922 116.01799 1266 ft 135 kts 23°
2026-04-24 13:30 5.86784 116.02165 1096 ft 135 kts 23°
2026-04-24 13:31 5.87649 116.02533 923 ft 134 kts 23°
2026-04-24 13:31 5.88513 116.02900 756 ft 142 kts 23°
2026-04-24 13:31 5.89419 116.03285 567 ft 139 kts 23°
2026-04-24 13:31 5.90305 116.03668 389 ft 138 kts 24°
2026-04-24 13:32 5.91192 116.04048 232 ft 139 kts 22°
2026-04-24 13:32 5.92082 116.04424 49 ft 136 kts 22°
2026-04-24 13:32 5.92856 116.04753 29 ft 95 kts 21°
2026-04-24 13:32 5.93327 116.04951 28 ft 64 kts 24°
2026-04-24 13:33 5.93705 116.05109 30 ft 55 kts 23°
2026-04-24 13:33 5.93985 116.05281 32 ft 40 kts 53°
2026-04-24 13:33 5.94074 116.05407 27 ft 17 kts 80°
2026-04-24 13:33 5.94033 116.05433 28 ft 9 kts 191°
2026-04-24 13:34 5.93966 116.05406 28 ft 12 kts 198°
2026-04-24 13:34 5.93871 116.05367 28 ft 19 kts 203°
2026-04-24 13:34 5.93736 116.05310 28 ft 23 kts 203°
2026-04-24 13:34 5.93581 116.05245 28 ft 25 kts 202°
2026-04-24 13:35 5.93415 116.05174 28 ft 27 kts 203°
2026-04-24 13:35 5.93238 116.05100 28 ft 28 kts 202°
2026-04-24 13:35 5.93053 116.05022 28 ft 30 kts 202°
2026-04-24 13:35 5.92859 116.04941 28 ft 31 kts 202°
2026-04-24 13:36 5.92663 116.04855 28 ft 31 kts 204°
2026-04-24 13:36 5.92467 116.04773 28 ft 28 kts 195°
2026-04-24 13:36 5.92398 116.04821 28 ft 14 kts 125°
2026-04-24 13:36 5.92302 116.04869 28 ft 17 kts 157°
2026-04-24 13:37 5.92177 116.04920 28 ft 3 kts 149°
2026-04-24 13:37 5.92179 116.04937 28 ft 5 kts 74°
2026-04-24 13:37 5.92199 116.04990 28 ft 8 kts 68°
2026-04-24 13:37 5.92204 116.05002 28 ft 0 kts 68°
2026-04-24 13:38 5.92205 116.05005 28 ft 0 kts 68°